Zurück zum Katalog

STARLINK-11318

AktivKommunikationVLEO
NORAD 61252·PAYLOAD·🇺🇸 United States

Gestartet Sep 25, 2024 von Vandenberg Space Force Base

Loading…

Nächste Überflüge (nächste 24 Stunden)

TLE

AktuellSource: CelesTrak SupGP

Epoche: Sep 15, 2026, 03:11 UTC

1 61252C 24175K   26258.13312500 -.00070432  00000+0 -58005-3 0  2589
2 61252  53.1572 202.6242 0001204  86.6901  46.3929 15.69749535    14

Verfolge STARLINK-11318 in Echtzeit mit AllMySat

Download on the App Store